Location: Apollinopolis Magna
(24.9792°N, 32.8772°E)
Time: 17:26:32
(UTC+00:00)

Daily predictions for brighter satellites

Satellite Brightness Start Highest point End
(mag) Time Altitude Azimuth Time Altitude Azimuth Time Altitude Azimuth
Meteor 1-27 Rocket 3.7 16:06:13 10° N 16:11:45 87° E 16:17:21 10° S
Cosmos 1707 Rocket 3.8 16:11:14 10° N 16:15:25 46° E 16:19:35 10° SSE
Cosmos 2219 Rocket 3.7 16:14:11 10° SE 16:16:58 14° E 16:19:46 10° ENE
Okean-O 3.3 16:17:33 10° SE 16:21:31 33° ENE 16:25:30 10° N
SL-16 R/B 3.1 16:16:07 10° SSW 16:21:37 53° WNW 16:27:09 10° N
TSX-5 3.2 16:18:14 10° NNW 16:21:43 66° ENE 16:24:48 10° SSE
Cosmos 2181 Rocket 4.4 16:16:51 10° N 16:23:15 75° W 16:29:32 10° S
Cosmos 1939 Rocket 4.4 16:19:52 10° S 16:23:29 39° W 16:27:06 10° NNW
CZ-4 R/B 1.5 16:22:41 10° SSE 16:26:22 47° ENE 16:30:04 10° N
CZ-4B R/B 4.2 16:24:09 10° NNW 16:26:31 21° WNW 16:28:54 10° SW
ARGOS 3.8 16:23:25 10° SE 16:28:13 34° ENE 16:33:03 10° N
Palapa 6 Rocket 4.5 16:22:38 10° WSW 16:29:43 70° S 16:36:50 14° E
Cosmos 2322 4.5 16:28:16 10° SSE 16:33:08 30° ESE 16:38:02 10° NE
Okean 1 4.0 16:32:12 10° NNE 16:35:52 33° E 16:39:31 10° SSE
Cosmos 2263 Rocket 2.1 16:30:26 10° NNW 16:35:57 67° ENE 16:41:28 10° SSE
SJ-11-01 4.3 16:33:16 10° SSE 16:37:48 55° ENE 16:42:21 10° N
Delta 7925 Rocket 3.1 16:33:39 10° W 16:38:27 81° N 16:41:56 17° E
Cosmos 2237 4.4 16:33:02 10° SSW 16:38:45 79° WNW 16:44:29 10° NNE
ATLAS CENTAUR R/B 2.1 16:37:04 10° SW 16:40:38 47° WNW 16:44:06 10° NNE
Cosmos 1470 Rocket 3.5 16:37:04 10° S 16:41:31 86° E 16:46:00 10° N
GPS 2-14 Rocket1 3.3 16:39:29 10° WSW 16:43:05 40° S 16:45:22 19° ESE
Cosmos 1515 3.8 16:44:07 10° N 16:47:49 50° E 16:51:30 10° SSE
IRS-P2 Rocket 4.5 16:42:50 10° SSE 16:47:58 69° ENE 16:53:10 10° N
IRS-1C Rocket 4.4 16:45:40 10° S 16:50:53 71° WSW 16:56:09 10° NNW
Meteor 2-12 Rocket 4.4 16:44:51 10° S 16:50:54 90° E 16:56:59 10° N
CZ-2C R/B 2.6 16:45:52 10° NNE 16:51:18 87° ESE 16:56:35 10° SSW
SWIFT 3.1 16:48:03 10° WSW 16:51:56 38° S 16:53:59 23° ESE
H-2A R/B 2.2 16:47:14 10° S 16:52:37 84° WSW 16:58:05 10° NNW
CSL-04 Rocket 3.8 16:53:26 10° SSE 16:58:49 54° ENE 17:04:12 10° N
CSL-04 Debris 4.2 16:53:34 10° SSE 16:58:52 59° ENE 17:04:12 10° N
USA 234 4.3 16:54:03 10° NNE 17:00:07 42° NW 17:06:12 10° WSW
Lacrosse 5 rocket 4.3 16:58:45 10° W 17:01:06 15° WSW 17:03:23 10° SSW
Meteor 1-5 Rocket 4.0 16:56:13 10° S 17:01:26 65° E 17:06:46 10° NNE
Cosmos 1486 Rocket 4.1 16:56:17 10° N 17:01:28 55° ENE 17:06:40 10° SSE
Cosmos 1933 Rocket 3.5 16:58:16 10° S 17:02:35 83° W 17:06:56 10° N
Cosmos 968 Rocket 3.4 16:57:22 10° N 17:02:36 67° ENE 17:07:48 10° SSE
Cosmos 2333 4.1 16:58:02 10° S 17:03:36 71° ESE 17:09:13 10° NNE
DMSP B5D2-2 3.9 17:01:43 10° NNE 17:06:56 78° ESE 17:12:07 10° S
APEX 2.2 17:04:34 10° NNW 17:07:16 85° WSW 17:07:40 61° S
SeaSat 1 4.5 17:06:29 10° N 17:10:36 27° WNW 17:14:43 10° WSW
Cosmos 1666 2.5 17:06:59 10° S 17:10:38 63° E 17:14:17 10° NNE
Cosmos 1844 Rocket 4.0 17:07:06 10° NNE 17:10:05 21° NE 17:10:05 21° NE
Cosmos 2360 Rocket 3.3 17:07:12 10° SW 17:12:32 44° WNW 17:17:55 10° N
Nadezhda 3 Rocket 4.1 17:10:11 10° N 17:16:34 82° W 17:22:54 10° S
Cosmos 1862 Rocket 4.3 17:13:19 10° NNW 17:17:42 56° W 17:22:03 10° S
Cosmos 2242 Rocket 4.2 17:14:03 10° N 17:17:15 37° NE 17:17:15 37° NE
Cosmos 2333 Rocket 2.1 17:13:16 10° SSW 17:18:52 76° ESE 17:24:33 10° NNE
YAOGAN 1 4.1 17:15:53 10° SSW 17:19:52 36° W 17:23:51 10° NNW
NOSS 3-2 (A) 3.7 17:15:15 10° S 17:19:19 35° SE 17:19:19 35° SE
Meteor 1-19 Rocket 4.4 17:14:18 10° N 17:20:08 75° W 17:25:46 10° S
GP-B 3.2 17:18:51 10° S 17:23:15 74° W 17:27:40 10° N
GPS 2-12 Rocket1 4.3 17:21:44 10° SW 17:25:49 28° SSE 17:25:56 28° SSE
Meteor 2-4 Rocket 3.7 17:23:20 10° N 17:29:13 72° E 17:35:07 10° SSE
Lacrosse 4 Rocket 1.4 17:25:58 10° SSW 17:30:15 84° WNW 17:31:08 56° NNE
ATLAS 2A CENTAUR R/B 4.4 16:28:43 10° W 17:31:37 83° SSW 17:38:12 35° ESE
Helios 1A Rocket 4.0 17:30:06 10° S 17:33:59 43° W 17:37:51 10° NNW
DELTA 2 R/B (1) 4.2 17:31:27 10° WSW 17:36:49 51° NNW 17:38:32 38° NNE
Cosmos 1503 Rocket 3.9 17:33:01 10° N 17:37:40 64° NE 17:37:40 64° NE
SL-8 Rocket 4.2 17:37:16 10° SSW 17:43:30 70° W 17:49:42 10° N
H-2A R/B 3.9 17:40:41 10° SW 17:44:10 16° S 17:44:10 16° S
Hubble Space Telescope 2.0 17:42:10 10° WSW 17:44:45 35° SW 17:44:45 35° SW
SME Rocket 4.0 17:40:17 10° N 17:46:41 64° WNW 17:51:03 10° SSW
Meteor 1-11 Rocket 3.7 17:42:25 10° S 17:48:14 82° W 17:53:56 10° N
COSMOS 2428 2.7 17:43:01 10° SSW 17:48:41 81° WNW 17:50:33 44° N
CENTAUR R/B 4.4 17:44:27 10° S 17:44:32 10° S 17:44:32 10° S
FUSE 3.9 17:44:11 10° W 17:49:17 80° W 17:49:17 80° W
Cosmos 44 Rocket 3.7 17:49:08 10° NNW 17:53:23 60° NNW 17:53:23 60° NNW
Cosmos 2366 rocket 4.3 17:51:36 10° SSW 17:57:48 67° W 18:04:06 10° N
Cosmos 2219 Rocket 3.0 17:55:01 10° SW 18:00:23 49° WNW 18:04:10 19° N
Delta 2 Rocket 3.8 17:54:30 10° W 18:00:13 78° W 18:00:13 78° W
Palapa 6 Rocket 4.4 18:11:29 10° W 18:18:42 72° SW 18:18:42 72° SW
Centaur AC-64 4.4 18:17:08 10° W 18:36:27 64° WSW 18:36:27 64° WSW
